Flag Weather past 2 weeks in Whitehorse, Yukon Territory, Canada

Now
21 °F

Mostly cloudy.


Feels Like: 15 °F
Forecast: 22 / 25 °F
Wind: 5 mph from North

Location: Withehorse

Current Time: Nov 22, 2014 at 8:03:01 PM

Latest Report: Nov 22, 2014 at 7:00 PM


Visibility: 8 mi

Pressure: 29.46 "Hg

Humidity: 86%

Dew point: 18 °F

Location of WhitehorseLocation

Historic Weather in Whitehorse — Graph

°F

Whitehorse temperature yesterday

Maximum temperature yesterday: 23 °F (at 12:00 AM)
Minimum temperature yesterday: 19 °F (at 10:00 AM)
Average temperature yesterday: 20 °F

Past Weeks' High & Low Weather Summary

 TemperatureHumidityPressure
High30 °F (Nov 7, 7:00 PM)100% (Nov 20, 12:00 PM)30.59 "Hg (Nov 20, 12:00 PM)
Low9 °F (Nov 17, 11:00 PM)73% (Nov 12, 12:00 PM)29.25 "Hg (Nov 21, 10:00 PM)
Average21 °F87%30.16 "Hg
* Reported Nov 7 6:00 PM — Nov 22 6:00 PM, Whitehorse, Weather by CustomWeather, © 2014

Note: Actual official high and low records may vary slightly from our data, if they occured in-between our weather recording intervals... More about our weather records

Advertising

Whitehorse weather history for previous 24 hours

 ConditionsComfort  
Time TempWeatherWind HumidityBarometerVisibility
6:00 PM
Nov 22
23 °FMostly cloudy.No wind86%29.44 "Hg8 mi
5:45 PM25 °FLow clouds.3 mph86%29.43 "Hg8 mi
5:00 PM21 °FMostly cloudy.2 mph93%29.42 "Hg15 mi
4:00 PM21 °FMore clouds than sun.2 mph86%29.42 "Hg12 mi
3:00 PM23 °FMostly cloudy.6 mph86%29.41 "Hg20 mi
2:00 PM27 °FPartly sunny.8 mph80%29.39 "Hg20 mi
1:00 PM25 °FPartly sunny.5 mph86%29.38 "Hg20 mi
12:00 PM25 °FPartly sunny.13 mph86%29.37 "Hg20 mi
11:00 AM25 °FPartly sunny.14 mph86%29.35 "Hg20 mi
10:00 AM25 °FPartly sunny.15 mph86%29.33 "Hg20 mi
9:00 AM25 °FPassing clouds.13 mph86%29.31 "Hg20 mi
8:00 AM25 °FPartly cloudy.13 mph86%29.30 "Hg15 mi
7:00 AM25 °FPassing clouds.10 mph86%29.29 "Hg15 mi
6:00 AM23 °FPassing clouds.12 mph93%29.27 "Hg15 mi
5:00 AM25 °FOvercast.13 mph93%29.26 "Hg15 mi
4:48 AM25 °FOvercast.10 mph93%29.26 "Hg15 mi
4:00 AM21 °FLight snow. Mostly cloudy.2 mph93%29.26 "Hg15 mi
3:00 AM19 °FLight snow. Mostly cloudy.No wind93%29.27 "Hg15 mi
2:00 AM19 °FLight snow. Mostly cloudy.2 mph93%29.27 "Hg15 mi
1:00 AM19 °FLight snow. Low clouds.No wind93%29.26 "Hg15 mi
12:00 AM19 °FMostly cloudy.5 mph93%29.25 "Hg15 mi
11:00 PM
Nov 21
19 °FMostly cloudy.No wind93%29.25 "Hg15 mi
10:47 PM19 °FLow clouds.No wind93%29.25 "Hg15 mi
10:00 PM19 °FOvercast.2 mph86%29.25 "Hg15 mi
9:00 PM19 °FLight snow. Low clouds.3 mph86%29.25 "Hg15 mi
8:00 PM19 °FLight snow. Low clouds.3 mph93%29.25 "Hg15 mi
Weather by CustomWeather, © 2014

See weather overviewHow to use our weather pages